TimeEST,TemperatureF,Dew PointF,Humidity,Sea Level PressureIn,VisibilityMPH,Wind Direction,Wind SpeedMPH,Gust SpeedMPH,PrecipitationIn,Events,Conditions,WindDirDegrees,DateUTC
12:15 AM,42.3,41.2,96,29.63,4.0,SSE,9.2,16.1,N/A,,Drizzle,160,2014-01-06 05:15:00
12:35 AM,41.4,40.3,96,29.63,5.0,South,6.9,-,N/A,,Light Drizzle,170,2014-01-06 05:35:00
12:55 AM,41.2,40.1,96,29.62,4.0,South,9.2,20.7,N/A,,Drizzle,170,2014-01-06 05:55:00
1:15 AM,41.5,40.5,96,29.61,5.0,South,10.4,24.2,N/A,Rain,Rain,180,2014-01-06 06:15:00
1:35 AM,41.7,40.6,96,29.59,7.0,SSE,8.1,16.1,N/A,Rain,Light Rain,160,2014-01-06 06:35:00
1:55 AM,42.1,41.2,97,29.57,10.0,South,6.9,-,N/A,Rain,Light Rain,170,2014-01-06 06:55:00
2:15 AM,44.2,43.0,95,29.59,10.0,South,9.2,21.9,N/A,,Overcast,180,2014-01-06 07:15:00
2:35 AM,45.3,43.7,94,29.60,10.0,West,24.2,32.2,N/A,,Light Drizzle,280,2014-01-06 07:35:00
2:55 AM,41.9,38.1,86,29.62,10.0,West,26.5,34.5,N/A,Rain,Rain,280,2014-01-06 07:55:00
3:15 AM,39.9,34.2,80,29.64,10.0,West,23.0,35.7,N/A,Rain,Light Rain,270,2014-01-06 08:15:00
3:35 AM,38.5,32.0,78,29.63,10.0,West,20.7,40.3,N/A,,Overcast,270,2014-01-06 08:35:00
3:55 AM,37.6,30.9,77,29.62,10.0,West,29.9,39.1,N/A,,Overcast,270,2014-01-06 08:55:00
4:15 AM,35.6,30.0,80,29.64,10.0,West,20.7,32.2,N/A,,Overcast,270,2014-01-06 09:15:00
4:35 AM,34.5,27.5,76,29.63,10.0,West,24.2,34.5,N/A,,Overcast,260,2014-01-06 09:35:00
4:55 AM,33.8,26.1,73,29.64,10.0,West,15.0,28.8,N/A,,Overcast,280,2014-01-06 09:55:00
5:15 AM,32.5,26.1,77,29.65,10.0,West,10.4,29.9,N/A,,Overcast,270,2014-01-06 10:15:00
5:35 AM,32.0,25.2,76,29.66,10.0,WNW,19.6,35.7,N/A,,Overcast,290,2014-01-06 10:35:00
5:55 AM,30.4,23.4,75,29.67,10.0,West,19.6,36.8,N/A,,Overcast,280,2014-01-06 10:55:00
6:15 AM,29.7,22.6,75,29.66,10.0,West,19.6,35.7,N/A,,Overcast,270,2014-01-06 11:15:00
6:35 AM,28.8,20.8,72,29.66,10.0,West,27.6,47.2,N/A,,Overcast,270,2014-01-06 11:35:00
6:55 AM,27.5,21.2,77,29.68,5.0,West,23.0,34.5,N/A,,Haze,280,2014-01-06 11:55:00
7:15 AM,26.6,21.2,80,29.68,2.5,WNW,18.4,27.6,N/A,Snow,Light Snow,300,2014-01-06 12:15:00
7:35 AM,25.5,21.7,86,29.70,2.0,WNW,15.0,23.0,N/A,Snow,Light Snow,300,2014-01-06 12:35:00
7:55 AM,24.4,20.3,84,29.70,2.0,WNW,20.7,29.9,N/A,Snow,Light Snow,300,2014-01-06 12:55:00
8:15 AM,23.9,18.5,80,29.71,1.8,WNW,13.8,27.6,N/A,Snow,Light Snow,300,2014-01-06 13:15:00
8:35 AM,23.7,18.7,81,29.72,1.2,NW,11.5,18.4,N/A,Snow,Light Snow,310,2014-01-06 13:35:00
8:55 AM,22.8,17.1,79,29.73,0.8,NW,18.4,32.2,N/A,Snow,Light Snow,310,2014-01-06 13:55:00
9:15 AM,22.6,15.6,74,29.74,1.5,WNW,20.7,32.2,N/A,Snow,Light Snow,300,2014-01-06 14:15:00
9:35 AM,22.1,14.2,72,29.75,1.8,NW,17.3,26.5,N/A,Snow,Light Snow,320,2014-01-06 14:35:00
9:55 AM,21.9,14.9,74,29.75,1.2,WNW,10.4,21.9,N/A,Snow,Light Snow,290,2014-01-06 14:55:00
10:15 AM,21.2,14.2,74,29.76,1.2,NW,10.4,24.2,N/A,Snow,Light Snow,310,2014-01-06 15:15:00
10:35 AM,20.5,12.4,71,29.76,1.2,WNW,20.7,28.8,N/A,Snow,Light Snow,300,2014-01-06 15:35:00
10:55 AM,19.6,10.8,69,29.77,2.5,NW,16.1,34.5,N/A,Snow,Light Snow,320,2014-01-06 15:55:00
11:15 AM,19.8,10.8,68,29.77,2.0,NW,17.3,34.5,N/A,Snow,Light Snow,310,2014-01-06 16:15:00
11:35 AM,19.4,9.5,65,29.76,3.0,NW,16.1,28.8,N/A,Snow,Light Snow,310,2014-01-06 16:35:00
11:55 AM,19.2,10.4,69,29.76,3.0,NW,15.0,21.9,N/A,Snow,Light Snow,310,2014-01-06 16:55:00
12:15 PM,19.6,9.5,65,29.75,4.0,WNW,15.0,28.8,N/A,Snow,Light Snow,300,2014-01-06 17:15:00
12:35 PM,19.2,8.8,64,29.75,1.5,WNW,24.2,35.7,N/A,Snow,Light Snow,290,2014-01-06 17:35:00
12:55 PM,18.3,7.5,63,29.75,2.0,WNW,20.7,32.2,N/A,Snow,Light Snow,290,2014-01-06 17:55:00
1:15 PM,18.3,7.7,63,29.76,3.0,West,5.8,19.6,N/A,Snow,Light Snow,270,2014-01-06 18:15:00
1:35 PM,18.1,8.4,66,29.76,1.8,WNW,15.0,25.3,N/A,Snow,Light Snow,290,2014-01-06 18:35:00
1:55 PM,17.6,6.8,63,29.77,2.0,WNW,19.6,33.4,N/A,Snow,Light Snow,290,2014-01-06 18:55:00
2:15 PM,16.2,8.4,72,29.77,1.0,WNW,18.4,25.3,N/A,Snow,Light Snow,290,2014-01-06 19:15:00
2:40 PM,15.1,6.3,68,29.77,1.0,West,21.9,29.9,N/A,Snow,Light Snow,280,2014-01-06 19:40:00
2:55 PM,14.5,4.1,63,29.78,1.8,WNW,21.9,33.4,N/A,Snow,Light Snow,300,2014-01-06 19:55:00
3:15 PM,13.6,4.3,66,29.79,1.2,WNW,20.7,32.2,N/A,Snow,Light Snow,290,2014-01-06 20:15:00
3:35 PM,12.7,4.1,68,29.81,1.2,WNW,16.1,31.1,N/A,Snow,Light Snow,290,2014-01-06 20:35:00
3:55 PM,11.1,1.2,64,29.82,0.8,WNW,24.2,33.4,N/A,Snow,Light Snow,290,2014-01-06 20:55:00
4:15 PM,9.9,0.3,65,29.83,1.5,WNW,20.7,32.2,N/A,Snow,Light Snow,290,2014-01-06 21:15:00
4:35 PM,7.9,-3.1,61,29.83,2.0,WNW,20.7,39.1,N/A,Snow,Light Snow,300,2014-01-06 21:35:00
4:55 PM,6.6,-4.9,59,29.83,2.5,WNW,27.6,40.3,N/A,Snow,Light Snow,290,2014-01-06 21:55:00
5:15 PM,5.5,-2.0,71,29.84,0.5,West,23.0,34.5,N/A,Snow,Light Snow,270,2014-01-06 22:15:00
5:35 PM,4.8,-6.9,59,29.85,2.5,WNW,15.0,32.2,N/A,,Haze,290,2014-01-06 22:35:00
5:55 PM,4.1,-6.2,63,29.85,3.0,WNW,18.4,29.9,N/A,,Haze,290,2014-01-06 22:55:00
6:15 PM,3.6,-6.9,62,29.87,5.0,West,21.9,33.4,N/A,,Haze,270,2014-01-06 23:15:00
6:35 PM,2.3,-7.6,63,29.87,4.0,WNW,21.9,34.5,N/A,,Haze,290,2014-01-06 23:35:00
6:55 PM,1.4,-8.9,62,29.88,4.0,WNW,20.7,31.1,N/A,,Haze,290,2014-01-06 23:55:00
7:15 PM,1.0,-9.0,63,29.90,3.0,WNW,12.7,26.5,N/A,,Haze,290,2014-01-07 00:15:00
7:35 PM,0.3,-10.7,60,29.91,7.0,WNW,19.6,33.4,N/A,,Overcast,300,2014-01-07 00:35:00
7:55 PM,-0.0,-9.9,63,29.91,4.0,WNW,13.8,20.7,N/A,,Haze,290,2014-01-07 00:55:00
8:15 PM,-0.4,-8.9,67,29.92,2.0,West,19.6,27.6,N/A,Snow,Light Snow,280,2014-01-07 01:15:00
8:35 PM,-0.9,-10.5,64,29.93,2.0,West,19.6,31.1,N/A,Snow,Light Snow,280,2014-01-07 01:35:00
8:55 PM,-1.5,-11.7,62,29.94,1.8,West,21.9,39.1,N/A,Snow,Light Snow,280,2014-01-07 01:55:00
9:15 PM,-2.0,-13.0,60,29.94,5.0,West,20.7,27.6,N/A,,Haze,280,2014-01-07 02:15:00
9:35 PM,-2.6,-12.6,62,29.95,4.0,West,18.4,27.6,N/A,,Haze,280,2014-01-07 02:35:00
9:55 PM,-2.7,-11.6,66,29.95,1.2,West,17.3,29.9,N/A,Snow,Light Snow,280,2014-01-07 02:55:00
10:15 PM,-3.1,-12.8,63,29.95,3.0,WNW,13.8,29.9,N/A,,Haze,290,2014-01-07 03:15:00
10:35 PM,-3.1,-12.3,65,29.94,3.0,West,11.5,19.6,N/A,,Haze,270,2014-01-07 03:35:00
10:55 PM,-3.5,-13.0,64,29.95,2.5,WNW,8.1,33.4,N/A,,Haze,300,2014-01-07 03:55:00
11:15 PM,-4.0,-14.1,62,29.94,4.0,WNW,13.8,24.2,N/A,,Haze,290,2014-01-07 04:15:00
11:35 PM,-4.0,-14.1,62,29.94,5.0,West,17.3,25.3,N/A,,Haze,270,2014-01-07 04:35:00
11:55 PM,-4.2,-14.8,60,29.95,7.0,West,9.2,32.2,N/A,,Overcast,270,2014-01-07 04:55:00